[[{"header":{"parameterUnit":"m.s-1","parameterCategory":1,"la1":30.2991,"la2":30.254,"lo1":-89.0895,"lo2":-89.0444,"dy":0.0017,"dx":0.0017,"nx":28,"ny":28,"refTime":"2024-05-06T09:00:00:Z","depth":0,"parameterNumber":2,"parameterNumberName":"U-component_of_WINDS"},"data":[0,0,0,0,0,0,0,0,0,0,0,0,0,0,0,0,0,0,0,0,0,0,0,0,0,0,0,0,0,0,0,0,0,0,0,0,0,0,0,0,0,0,0,0,0,0,0,0,0,0,0,0,0,0,0,0,0,0,-0.5517,-0.5518,0,-0.5544,-0.5544,-0.5545,-0.5573,-0.5573,-0.5573,-0.5574,-0.5601,-0.5601,-0.5602,0,0,0,0,0,0,0,0,0,0,0,0,0,-0.5492,-0.5493,-0.5517,-0.5518,-0.5518,-0.5544,-0.5544,-0.5545,-0.5573,-0.5573,-0.5574,-0.5574,-0.5601,-0.5601,-0.5602,0,0,0,0,0,0,0,0,0,0,0,0,0,-0.5509,-0.5493,-0.5517,-0.5535,-0.5537,-0.5544,-0.5544,-0.5545,-0.5572,-0.5573,-0.5574,-0.5574,-0.5601,-0.5601,-0.5602,-0.5593,0,0,-0.5603,-0.5604,0,0,0,0,0,0,0,0,-0.5508,-0.551,-0.5532,-0.5534,-0.5536,-0.5556,-0.5545,-0.5561,-0.5572,-0.5559,-0.5574,-0.5574,-0.5585,-0.5587,-0.5591,-0.5595,-0.5596,-0.5604,-0.5604,-0.5604,-0.5604,0,0,0,0,0,0,0,-0.5507,-0.5509,-0.5528,-0.5532,-0.5535,-0.5542,-0.5545,-0.5549,-0.5569,-0.556,-0.5562,-0.5565,-0.5587,-0.559,-0.5592,-0.5596,-0.5604,-0.5604,-0.5604,-0.5605,-0.5597,-0.5596,0,0,0,0,0,0,-0.5503,-0.5508,-0.5527,-0.5529,-0.5523,-0.5542,-0.5546,-0.5549,-0.5569,-0.5572,-0.5564,-0.5566,-0.5589,-0.5591,-0.5593,-0.5586,-0.5604,-0.5605,-0.5605,-0.5597,-0.5597,-0.5596,0,0,0,0,0,0,-0.5502,-0.5505,-0.5526,-0.5519,-0.5522,-0.5542,-0.5545,-0.5549,-0.5553,-0.5572,-0.5576,-0.5565,-0.559,-0.5592,-0.5594,-0.5587,-0.5605,-0.5605,-0.5598,-0.5597,-0.5596,-0.557,0,0,0,0,0,0,-0.5502,-0.5504,-0.55,-0.5519,-0.5523,-0.5525,-0.5545,-0.5549,-0.5554,-0.5556,-0.5573,-0.5576,-0.559,-0.5593,-0.5594,-0.5588,-0.5606,-0.5599,-0.5598,-0.5597,-0.5572,-0.5568,-0.5566,0,0,0,0,0,-0.5501,-0.5492,-0.55,-0.5502,-0.5518,-0.5525,-0.5527,-0.5544,-0.5553,-0.555,-0.5563,-0.5576,-0.5588,-0.5593,-0.5594,-0.5588,-0.5599,-0.5598,-0.5597,-0.5573,-0.5569,-0.5566,0,0,0,0,0,0,-0.5471,-0.5494,-0.5504,-0.55,-0.5511,-0.553,-0.5526,-0.5539,-0.5546,-0.5548,-0.5568,-0.5572,-0.5572,-0.558,-0.5585,-0.5582,-0.5595,-0.5594,-0.5577,-0.5573,-0.557,-0.5568,-0.5606,0,0,0,0,0,-0.5465,-0.5468,-0.5488,-0.5483,-0.5487,-0.5506,-0.5509,-0.5521,-0.5533,-0.5537,-0.555,-0.5561,-0.5567,-0.5571,-0.5577,-0.5573,-0.5578,-0.557,-0.5567,-0.5565,-0.5564,-0.5564,-0.5561,-0.5592,-0.5592,-0.5592,0,0,-0.5451,-0.5463,-0.5464,-0.5477,-0.5487,-0.549,-0.5509,-0.5512,-0.5515,-0.5537,-0.554,-0.555,-0.5563,-0.5562,-0.5563,-0.557,-0.5557,-0.5563,-0.5561,-0.5562,-0.5563,-0.556,-0.5557,-0.5591,-0.5591,-0.5592,0,0,-0.5427,-0.5436,-0.5434,-0.5443,-0.5458,-0.547,-0.547,-0.5488,-0.5495,-0.5498,-0.5516,-0.552,-0.553,-0.554,-0.5546,-0.5528,-0.5541,-0.553,-0.5514,-0.5515,-0.5512,-0.551,-0.5505,-0.5503,-0.5529,-0.5529,-0.5529,0,-0.5407,-0.5413,-0.5431,-0.5433,-0.5439,-0.5461,-0.5459,-0.5468,-0.5483,-0.5487,-0.5495,-0.5509,-0.552,-0.5522,-0.5518,-0.5522,-0.5523,-0.5528,-0.5511,-0.5509,-0.5508,-0.5503,-0.5501,-0.5527,-0.5528,-0.5528,-0.5528,0,-0.5389,-0.5393,-0.539,-0.5405,-0.541,-0.541,-0.543,-0.5433,-0.5446,-0.5458,-0.5462,-0.5475,-0.5486,-0.5488,-0.5499,-0.5492,-0.5496,-0.5507,-0.5521,-0.5503,-0.5499,-0.5497,-0.5525,-0.5526,-0.5526,-0.5527,0,0,-0.5346,-0.5373,-0.5372,-0.538,-0.5398,-0.5402,-0.5404,-0.5415,-0.5418,-0.5428,-0.5431,-0.544,-0.5451,-0.5458,-0.5471,-0.5471,-0.5458,-0.5483,-0.5483,-0.5478,-0.5453,-0.5445,-0.5443,-0.5467,-0.5467,-0.5467,-0.5452,0,-0.5326,-0.533,-0.5348,-0.5348,-0.5352,-0.5374,-0.5376,-0.5388,-0.54,-0.5406,-0.542,-0.5426,-0.544,-0.5444,-0.5445,-0.5459,-0.5453,-0.5461,-0.5471,-0.5471,-0.5467,-0.544,-0.5431,-0.5417,-0.5451,-0.5451,-0.545,0,-0.5302,-0.5313,-0.5313,-0.5333,-0.5335,-0.5337,-0.5349,-0.5355,-0.5369,-0.5378,-0.5387,-0.5402,-0.5407,-0.5419,-0.5427,-0.5431,-0.5437,-0.5444,-0.5444,-0.5446,-0.5459,-0.5442,-0.5413,-0.5411,-0.5448,-0.5448,-0.5448,0,-0.5272,-0.5286,-0.5288,-0.5294,-0.5317,-0.5318,-0.5328,-0.5343,-0.5349,-0.5361,-0.5365,-0.5376,-0.5383,-0.5392,-0.541,-0.5417,-0.5415,-0.5429,-0.5424,-0.5423,-0.5422,-0.5422,-0.5394,-0.5425,-0.5425,-0.5425,-0.5425,0,-0.5248,-0.5248,-0.5275,-0.5277,-0.5277,-0.5298,-0.5298,-0.531,-0.5324,-0.5329,-0.5349,-0.5353,-0.5376,-0.5384,-0.5398,-0.5402,-0.5405,-0.5413,-0.5417,-0.5411,-0.541,-0.5415,-0.5417,-0.5424,-0.5425,-0.5425,-0.5425,0,-0.5214,-0.5233,-0.5237,-0.5259,-0.5265,-0.5264,-0.5284,-0.5286,-0.53,-0.5306,-0.5309,-0.5331,-0.5341,-0.536,-0.5375,-0.5385,-0.5386,-0.5393,-0.5381,-0.5384,-0.5377,-0.5378,-0.5352,-0.535,-0.5381,-0.5381,-0.5381,0,-0.5198,-0.5198,-0.5221,-0.5225,-0.5234,-0.5242,-0.5248,-0.527,-0.5276,-0.5294,-0.5295,-0.5306,-0.5317,-0.5332,-0.5349,-0.5361,-0.5368,-0.5359,-0.537,-0.5365,-0.5369,-0.5369,-0.537,-0.5356,-0.5355,-0.5355,-0.5355,0,-0.5166,-0.5176,-0.5185,-0.5198,-0.5205,-0.5216,-0.5228,-0.5231,-0.5255,-0.5262,-0.5272,-0.528,-0.5296,-0.5308,-0.5323,-0.5334,-0.5348,-0.5351,-0.535,-0.5345,-0.5339,-0.5343,-0.5374,-0.5351,-0.5352,-0.5352,-0.5352,-0.5352,-0.5141,-0.5143,-0.516,-0.517,-0.5181,-0.5192,-0.5197,-0.5212,-0.5221,-0.5236,-0.5248,-0.5258,-0.5274,-0.5296,-0.5306,-0.5315,-0.5322,-0.5321,-0.5321,-0.532,-0.5318,-0.5337,-0.5318,-0.5318,-0.5318,-0.5318,-0.5318,0,-0.5112,-0.5124,-0.5133,-0.515,-0.5158,-0.5172,-0.5186,-0.5192,-0.52,-0.5215,-0.5225,-0.5238,-0.525,-0.5269,-0.5283,-0.5286,-0.5293,-0.5289,-0.5289,-0.5292,-0.5311,-0.531,-0.5283,-0.5283,-0.5283,-0.5283,-0.5283,-0.5283,-0.5098,-0.5102,-0.5114,-0.5125,-0.5138,-0.5147,-0.5155,-0.5166,-0.5177,-0.5191,-0.5201,-0.5214,-0.5231,-0.5246,-0.5258,-0.5263,-0.5268,-0.5261,-0.5269,-0.5287,-0.529,-0.5293,-0.5293,-0.5262,-0.5262,-0.5249,-0.5249,-0.5249]},{"header":{"parameterUnit":"m.s-1","parameterCategory":1,"la1":30.2991,"la2":30.254,"lo1":-89.0895,"lo2":-89.0444,"dy":0.0017,"dx":0.0017,"nx":28,"ny":28,"refTime":"2024-05-06T09:00:00:Z","depth":0,"parameterNumber":3,"parameterNumberName":"V-component_of_WINDS"},"data":[0,0,0,0,0,0,0,0,0,0,0,0,0,0,0,0,0,0,0,0,0,0,0,0,0,0,0,0,0,0,0,0,0,0,0,0,0,0,0,0,0,0,0,0,0,0,0,0,0,0,0,0,0,0,0,0,0,0,6.4296,6.4296,0,6.4322,6.4322,6.4322,6.4255,6.4253,6.4251,6.4249,6.4271,6.4274,6.4276,0,0,0,0,0,0,0,0,0,0,0,0,0,6.4184,6.4186,6.4296,6.4296,6.4296,6.4322,6.4322,6.4322,6.4255,6.4253,6.425,6.4248,6.4271,6.4274,6.4277,0,0,0,0,0,0,0,0,0,0,0,0,0,6.4223,6.4187,6.4296,6.4266,6.4264,6.4322,6.4322,6.4323,6.4256,6.4253,6.4249,6.4246,6.427,6.4273,6.4277,6.4364,0,0,6.4289,6.429,0,0,0,0,0,0,0,0,6.4221,6.4228,6.427,6.4268,6.4266,6.4282,6.4291,6.4336,6.4257,6.4259,6.4249,6.4245,6.4277,6.428,6.4292,6.4365,6.4366,6.4289,6.4291,6.4293,6.4294,0,0,0,0,0,0,0,6.4219,6.4226,6.4306,6.4271,6.4268,6.425,6.4252,6.4299,6.4285,6.4258,6.4253,6.4258,6.4275,6.4288,6.4292,6.4366,6.4289,6.4292,6.4295,6.4296,6.4511,6.4514,0,0,0,0,0,0,6.422,6.4224,6.4305,6.4307,6.4235,6.4255,6.4257,6.428,6.4284,6.4282,6.426,6.4254,6.4283,6.4287,6.4292,6.4394,6.4293,6.4297,6.4299,6.4508,6.4512,6.4516,0,0,0,0,0,0,6.4218,6.4228,6.4304,6.4264,6.4272,6.426,6.4286,6.4282,6.4295,6.4286,6.4283,6.4276,6.4281,6.4287,6.4347,6.4393,6.4298,6.4302,6.4504,6.4509,6.4514,6.4597,0,0,0,0,0,0,6.4215,6.4228,6.4261,6.4266,6.4275,6.4359,6.4289,6.4285,6.4302,6.4295,6.43,6.4298,6.4279,6.4341,6.4351,6.4397,6.4305,6.4499,6.4506,6.4512,6.459,6.4605,6.4617,0,0,0,0,0,6.4211,6.4283,6.4263,6.4274,6.4317,6.4362,6.4367,6.4345,6.4306,6.4339,6.4334,6.4298,6.4387,6.4348,6.4358,6.4406,6.4496,6.4504,6.4512,6.4584,6.4602,6.4617,0,0,0,0,0,0,6.4283,6.4283,6.4261,6.4337,6.435,6.4351,6.4391,6.4364,6.4388,6.4379,6.4349,6.4351,6.4416,6.4417,6.4374,6.449,6.4435,6.4445,6.4487,6.4503,6.4517,6.4514,6.4308,0,0,0,0,0,6.4308,6.4346,6.4343,6.441,6.4418,6.4404,6.4423,6.4405,6.4417,6.4421,6.442,6.4432,6.4463,6.4483,6.4511,6.4591,6.459,6.4629,6.4642,6.4653,6.4661,6.4703,6.4719,6.4541,6.4541,6.454,0,0,6.4359,6.4364,6.4389,6.4425,6.4433,6.4471,6.4409,6.4452,6.448,6.4427,6.4484,6.4484,6.4495,6.4565,6.4596,6.4568,6.4711,6.4663,6.4672,6.4674,6.4712,6.4729,6.4744,6.4546,6.4545,6.4544,0,0,6.4472,6.448,6.4536,6.4546,6.456,6.455,6.4564,6.4569,6.4567,6.4624,6.4585,6.4617,6.4671,6.468,6.4692,6.481,6.4777,6.482,6.4889,6.4929,6.4943,6.4956,6.4996,6.5011,6.4829,6.4829,6.4829,0,6.4533,6.4591,6.4568,6.4615,6.4631,6.4587,6.4642,6.4653,6.4675,6.4686,6.4655,6.4722,6.4726,6.4798,6.4826,6.4838,6.4852,6.4818,6.4943,6.4956,6.4967,6.5005,6.5021,6.4834,6.4833,6.4833,6.4832,0,6.4665,6.4706,6.4749,6.4773,6.4794,6.4845,6.4829,6.4853,6.4834,6.4827,6.4885,6.4889,6.4917,6.4933,6.4913,6.5001,6.4983,6.4949,6.4892,6.4989,6.5025,6.5039,6.4841,6.4839,6.4838,6.4836,0,0,6.4821,6.4833,6.4849,6.4859,6.4872,6.4902,6.4951,6.498,6.5001,6.5018,6.5057,6.5104,6.5072,6.5085,6.5067,6.5103,6.5195,6.5064,6.5063,6.5087,6.529,6.5315,6.5333,6.5174,6.5177,6.5179,6.5289,0,6.4932,6.5017,6.4998,6.5081,6.5118,6.5077,6.5119,6.5131,6.5127,6.5156,6.515,6.5184,6.514,6.5148,6.5182,6.5176,6.5235,6.5168,6.5209,6.521,6.5206,6.5352,6.5378,6.5482,6.5303,6.5305,6.5307,0,6.5071,6.5095,6.5182,6.5189,6.5204,6.5242,6.5267,6.5296,6.5309,6.5303,6.5319,6.5294,6.534,6.5286,6.5349,6.5305,6.532,6.532,6.5324,6.5325,6.5263,6.5355,6.5514,6.5529,6.5329,6.5327,6.5326,0,6.5175,6.5229,6.5288,6.5298,6.5308,6.5336,6.5341,6.535,6.5369,6.539,6.5401,6.5428,6.5442,6.5462,6.5444,6.5406,6.551,6.5454,6.5505,6.5506,6.5527,6.5526,6.5689,6.5541,6.554,6.554,6.554,0,6.5299,6.5354,6.5335,6.5371,6.5431,6.5409,6.5468,6.5468,6.5477,6.5511,6.5478,6.5511,6.5486,6.5516,6.5503,6.5557,6.5564,6.5559,6.5555,6.5561,6.5562,6.557,6.5561,6.5544,6.5543,6.5543,6.5542,0,6.5424,6.5414,6.5476,6.5481,6.5483,6.5527,6.553,6.5563,6.5557,6.5601,6.561,6.56,6.5634,6.5619,6.5654,6.5645,6.5714,6.5701,6.571,6.5706,6.5758,6.5753,6.5931,6.5952,6.5791,6.5793,6.5794,0,6.5503,6.5545,6.5555,6.5576,6.5584,6.5619,6.5638,6.5618,6.5639,6.5657,6.5687,6.5719,6.5743,6.5799,6.5794,6.5821,6.5807,6.5867,6.581,6.5816,6.5806,6.5803,6.5806,6.5878,6.588,6.5881,6.5883,0,6.5644,6.5637,6.5667,6.5695,6.5719,6.574,6.5758,6.5777,6.5757,6.5783,6.5818,6.5837,6.5874,6.5905,6.5929,6.5933,6.5904,6.5901,6.5914,6.592,6.5924,6.5921,6.574,6.5897,6.5895,6.5894,6.5893,6.5893,6.5748,6.5782,6.5795,6.5829,6.5841,6.5858,6.5889,6.5888,6.5917,6.5947,6.5933,6.5974,6.5985,6.6014,6.6022,6.6052,6.6028,6.6048,6.6052,6.6057,6.6063,6.5921,6.6057,6.6056,6.6056,6.6056,6.6055,0,6.5885,6.5892,6.5924,6.595,6.5977,6.595,6.5968,6.5992,6.6029,6.6042,6.6067,6.6107,6.6138,6.6136,6.6163,6.6188,6.6176,6.6196,6.6193,6.6194,6.6084,6.6069,6.6206,6.6206,6.6206,6.6206,6.6206,6.6206,6.596,6.6017,6.6012,6.6074,6.608,6.6121,6.6134,6.6149,6.616,6.6207,6.6233,6.6232,6.6238,6.6267,6.6293,6.6291,6.6302,6.6327,6.6321,6.6217,6.6202,6.6188,6.6174,6.633,6.6331,6.6429,6.643,6.643]}]]